This is the latest recevied weather packets stored in our database for station/object KE5VBO-1. If no packets are shown the sender has not sent any weather packets the latest 10 day(s).
| Time | Temp. | Humidity | Pressure | Rain* | Wind** | Luminosity | Snow |
|---|---|---|---|---|---|---|---|
| 1777592767 | 16.67° C | 2% | 1012.1 hPa | 0 mm | - | - | - |
| 1777591802 | 16.67° C | 1% | 1012.7 hPa | 0 mm | - | - | - |
| 1777590936 | 16.67° C | 5% | 1012.4 hPa | 0 mm | - | - | - |
| 1777590071 | 16.67° C | 13% | 1012.5 hPa | 0 mm | - | - | - |
| 1777589131 | 17.22° C | 19% | 1012.5 hPa | 0 mm | - | - | - |
| 1777588262 | 17.22° C | 25% | 1012.8 hPa | 0 mm | - | - | - |
| 1777587324 | 16.67° C | 23% | 1012.6 hPa | 0 mm | - | - | - |
| 1777586477 | 16.67° C | 15% | 1012.6 hPa | 0 mm | - | - | - |
| 1777585530 | 17.22° C | 28% | 1012.7 hPa | 0 mm | - | - | - |
| 1777584695 | 17.22° C | 30% | 1013.2 hPa | 0 mm | - | - | - |
| 1777583730 | 16.67° C | 29% | 1012.7 hPa | 0 mm | - | - | - |
| 1777582866 | 16.67° C | 9% | 1013 hPa | 0 mm | - | - | - |
| 1777581925 | 16.67° C | 21% | 1012.8 hPa | 0 mm | - | - | - |
| 1777581065 | 17.22° C | 26% | 1012.8 hPa | 0 mm | - | - | - |
| 1777580127 | 17.22° C | 19% | 1012.9 hPa | 0 mm | - | - | - |
| 1777579265 | 17.22° C | 29% | 1012.6 hPa | 0 mm | - | - | - |
| 1777578326 | 17.22° C | 28% | 1013 hPa | 0 mm | - | - | - |
| 1777577463 | 17.22° C | 22% | 1012.9 hPa | 0 mm | - | - | - |
| 1777576532 | 17.22° C | 24% | 1013.1 hPa | 0 mm | - | - | - |
| 1777575690 | 17.22° C | 22% | 1012.7 hPa | 0 mm | - | - | - |
| 1777574733 | 17.22° C | 17% | 1012.2 hPa | 0 mm | - | - | - |
| 1777573858 | 17.22° C | 17% | 1012 hPa | 0 mm | - | - | - |
| 1777572920 | 16.67° C | 8% | 1013.2 hPa | 0 mm | - | - | - |
| 1777572059 | 16.67° C | 2% | 1014.1 hPa | 0 mm | - | - | - |
| 1777571124 | 16.11° C | 1% | 1014.3 hPa | 0 mm | - | - | - |
* Rain latest hour (hover to see other rain measurements)
** Current wind speed in m/s (hover to see current wind gust speed)